This demonstration page uses our WeatherBlox Daily Observations layout. Learn more.

Left ArrowRight Arrow

39.51506, -84.39828

Hourly Observations for May 22, 2019

Temp ( °F °C ) Dew Point ( °F °C ) Humidity (%) Winds ( mph kmh ) Pressure ( in mb ) Visibility ( mi km ) Precip ( " mm )
12:15 am 00:15 Clear 56 13.6 46 7.8 68 68 E 6 9 30.04 1017 10 16 0.00 0.00
12:35 am 00:35 Clear 56 13.2 46 7.7 70 70 E 7 11 30.03 1017 10 16 0.00 0.00
12:55 am 00:55 Clear 56 13.4 46 7.9 70 70 E 6 9 30.02 1017 10 16 0.00 0.00
1:15 am 01:15 Clear 56 13.4 46 7.9 70 70 E 6 9 30.02 1017 10 16 0.00 0.00
1:35 am 01:35 Clear 56 13.4 46 7.7 69 69 E 6 9 30.01 1016 10 16 0.00 0.00
1:55 am 01:55 Clear 56 13.5 46 7.8 69 69 ESE 5 7 30.02 1017 10 16 0.00 0.00
2:15 am 02:15 Clear 57 13.8 46 7.6 66 66 ESE 5 7 30.02 1017 10 16 0.00 0.00
2:35 am 02:35 Clear 56 13.3 46 7.8 70 70 E 5 7 30.01 1016 10 16 0.00 0.00
2:55 am 02:55 Clear 55 13 46 7.9 71 71 E 5 7 30.02 1017 10 16 0.00 0.00
3:15 am 03:15 Clear 55 12.6 46 7.9 73 73 E 5 7 30.02 1017 10 16 0.00 0.00
3:35 am 03:35 Clear 55 12.8 47 8.3 74 74 E 7 11 30.01 1016 10 16 0.00 0.00
3:55 am 03:55 Clear 56 13.1 47 8.3 73 73 E 6 9 30.01 1016 10 16 0.00 0.00
4:15 am 04:15 Clear 55 13 47 8.6 75 75 ENE 6 9 30.00 1016 10 16 0.00 0.00
4:35 am 04:35 Clear 56 13.1 47 8.5 74 74 ENE 5 7 30.00 1016 10 16 0.00 0.00
4:55 am 04:55 Clear 56 13.1 47 8.6 74 74 Calm 30.01 1016 10 16 0.00 0.00
5:15 am 05:15 Clear 55 12.8 48 8.8 77 77 ENE 3 6 30.00 1016 10 16 0.00 0.00
5:35 am 05:35 Clear 55 13 47 8.6 75 75 E 6 9 29.99 1016 10 16 0.00 0.00
5:55 am 05:55 Mostly Cloudy 56 13.1 48 8.7 75 75 E 5 7 29.98 1015 10 16 0.00 0.00
6:15 am 06:15 Clear 55 12.9 48 8.8 76 76 Calm 29.98 1015 10 16 0.00 0.00
6:35 am 06:35 Sunny 56 13.3 48 8.8 74 74 Calm 29.98 1015 10 16 0.00 0.00
6:55 am 06:55 Sunny 58 14.3 48 8.9 70 70 Calm 29.98 1015 10 16 0.00 0.00
7:15 am 07:15 Sunny 58 14.6 50 9.8 73 73 Calm 30.00 1016 10 16 0.00 0.00
7:35 am 07:35 Partly Cloudy 58 14.7 50 10.1 74 74 Calm 30.01 1016 10 16 0.00 0.00
7:55 am 07:55 Partly Cloudy 60 15.8 50 10.1 69 69 SSE 3 6 29.99 1016 10 16 0.00 0.00
8:15 am 08:15 Mostly Cloudy 62 16.4 51 10.5 68 68 SE 6 9 29.99 1016 10 16 0.00 0.00
8:35 am 08:35 Sunny 64 17.8 52 11.3 66 66 Calm 29.98 1015 10 16 0.00 0.00
8:55 am 08:55 Partly Cloudy 64 17.7 53 11.8 69 69 Calm 29.99 1016 10 16 0.00 0.00
9:15 am 09:15 Sunny 66 19.1 54 12.4 65 65 S 6 9 29.98 1015 10 16 0.00 0.00
9:35 am 09:35 Sunny 69 20.7 56 13.4 63 63 S 10 17 29.96 1015 10 16 0.00 0.00
9:55 am 09:55 Sunny 71 21.6 58 14.3 63 63 SSW 7 11 29.97 1015 10 16 0.00 0.00
10:15 am 10:15 Partly Cloudy 73 22.6 60 15.6 65 65 WSW 10 17 29.98 1015 10 16 0.00 0.00
10:35 am 10:35 Mostly Cloudy 72 22.2 60 15.3 65 65 SW 12 19 29.97 1015 10 16 0.00 0.00
10:55 am 10:55 Partly Cloudy 74 23.6 62 16.8 66 66 SW 9 15 29.97 1015 10 16 0.00 0.00
11:15 am 11:15 Partly Cloudy 74 23.5 61 16.3 64 64 WSW 10 17 29.99 1015 10 16 0.00 0.00
11:35 am 11:35 Partly Cloudy 76 24.5 63 17.4 65 65 WNW 5 7 29.98 1015 10 16 0.00 0.00
11:55 am 11:55 Sunny 74 23.6 62 16.8 66 66 W 5 7 29.99 1015 10 16 0.00 0.00
12:15 pm 12:15 Sunny 74 23.1 63 17.2 70 70 WNW 5 7 30.00 1016 10 16 0.00 0.00
12:35 pm 12:35 Partly Cloudy 76 24.2 64 17.7 67 67 W 5 7 30.00 1016 10 16 0.00 0.00
12:55 pm 12:55 Partly Cloudy 77 25 65 18.4 67 67 WNW 8 13 30.00 1016 10 16 0.00 0.00
1:15 pm 13:15 Cloudy 76 24.7 65 18.5 69 69 W 8 13 30.00 1016 10 16 0.00 0.00
1:35 pm 13:35 Mostly Cloudy 75 23.9 65 18.1 70 70 NNW 8 13 30.01 1016 10 16 0.00 0.00
1:55 pm 13:55 Mostly Cloudy 75 23.7 64 17.6 69 69 WNW 7 11 30.00 1016 10 16 0.00 0.00
2:15 pm 14:15 Mostly Cloudy 74 23.6 64 17.7 70 70 WNW 7 11 30.01 1016 10 16 0.00 0.00
2:35 pm 14:35 Cloudy 72 22 63 17.1 74 74 NNW 8 13 30.01 1016 10 16 0.00 0.00
2:55 pm 14:55 Cloudy 71 21.7 62 16.9 74 74 N 3 6 30.01 1016 10 16 0.00 0.00
3:15 pm 15:15 Cloudy 71 21.9 63 17.3 75 75 Calm 30.01 1016 10 16 0.00 0.00
3:35 pm 15:35 Mostly Cloudy 72 22 63 17.3 75 75 Calm 30.00 1016 10 16 0.00 0.00
3:55 pm 15:55 Mostly Cloudy 72 22.4 64 17.7 75 75 Calm 30.00 1016 10 16 0.00 0.00
4:15 pm 16:15 Cloudy 72 22.4 64 17.9 76 76 WSW 3 6 30.00 1016 10 16 0.00 0.00
4:35 pm 16:35 Cloudy with Light Rain 71 21.5 66 18.9 85 85 SW 5 7 30.01 1016 7 11 0.00 0.00
4:55 pm 16:55 Cloudy 71 21.9 66 18.7 82 82 WSW 3 6 30.01 1016 10 16 0.00 0.00
5:15 pm 17:15 Cloudy with Light Rain 70 21.1 67 19.3 90 90 WSW 3 6 30.02 1017 5 8 0.02 0.51
5:35 pm 17:35 Cloudy with Light Rain 70 20.9 67 19.7 93 93 Calm 30.02 1017 4 6 0.05 1.27
5:55 pm 17:55 Cloudy with Light Rain 69 20.7 68 20.1 96 96 Calm 30.02 1017 4 6 0.06 1.52
6:15 pm 18:15 Cloudy with Light Rain 70 21.3 69 20.4 95 95 Calm 30.03 1017 5 8 0.00 0.00
6:35 pm 18:35 Cloudy with Light Rain 70 21.2 69 20.5 96 96 Calm 30.02 1017 5 8 0.01 0.25
6:55 pm 18:55 Cloudy with Mist and Fog 71 21.4 69 20.7 96 96 Calm 30.03 1017 5 8 0.01 0.25
7:15 pm 19:15 Cloudy with Mist and Fog 71 21.8 70 20.9 95 95 SW 3 6 30.02 1017 7 11 0.00 0.00
7:35 pm 19:35 Cloudy 72 22 70 20.9 94 94 S 3 6 30.02 1017 10 16 0.00 0.00
7:55 pm 19:55 Cloudy 72 22 70 20.9 94 94 Calm 30.02 1017 10 16 0.00 0.00
8:15 pm 20:15 Cloudy with Mist and Fog 72 22 70 20.9 94 94 Calm 30.01 1016 7 11 0.00 0.00
8:35 pm 20:35 Partly Cloudy with Mist and Fog 71 21.4 69 20.8 96 96 Calm 30.02 1017 5 8 0.00 0.00
8:55 pm 20:55 Cloudy with Mist and Fog 69 20.8 69 20.4 98 98 NNW 3 6 30.02 1017 2 2 0.00 0.00
9:15 pm 21:15 Partly Cloudy with Mist and Fog 69 20.8 69 20.6 99 99 Calm 30.03 1017 1 2 0.00 0.00
9:35 pm 21:35 Mostly Cloudy with Fog 67 19.3 66 19.1 99 99 Calm 30.04 1017 0 0 0.00 0.00
9:55 pm 21:55 Cloudy with Fog 67 19.3 66 19.1 99 99 Calm 30.05 1017 5 8 0.00 0.00
10:15 pm 22:15 Cloudy with Fog 65 18.6 65 18.4 99 99 Calm 30.05 1018 0 0 0.00 0.00
10:35 pm 22:35 Mostly Clear with Fog 65 18.5 65 18.4 99 99 Calm 30.05 1018 0 0 0.00 0.00
10:55 pm 22:55 Cloudy with Fog 64 17.7 64 17.6 99 99 Calm 30.05 1018 0 0 0.00 0.00
11:15 pm 23:15 Cloudy with Fog 63 17.4 63 17.3 99 99 Calm 30.05 1018 0 0 0.00 0.00
11:35 pm 23:35 Mostly Cloudy with Fog 62 16.9 62 16.8 99 99 Calm 30.04 1017 0 0 0.00 0.00
11:55 pm 23:55 Mostly Cloudy with Fog 62 16.9 62 16.8 99 99 Calm 30.04 1017 1 1 0.00 0.00

Powered by AerisWeather